FW2852 Harvard MA US current weather conditions

sailwx.info

Wind from 212

Air temperature 26.1° C
Dewpoint 21.3° C

Last reported at 2020-Jul-13 15:10 UTC.
Time now 2020-Jul-13 15:59 UTC

Location: N 42°29' W 071°33'.
View on Google Maps.

See reports from other nearby stations

  
Tides and Currents Weather Stations Pressure Air Temp Water Temp Dewpoint Dewpoint Depression Visibility Wind Speed Wind Dir Waves Ship Positions
date/time (UTC)wind fromknots sea level pressurealtimeterstation pressurevisibilityair tempwater tempwave heightnotes
2020-Jul-13 15:10 212 26.1
2020-Jul-13 15:00 192 25.6
2020-Jul-13 14:50 233 25.0
2020-Jul-13 14:40 233 0 gusting 1 24.4
2020-Jul-13 14:30 233 23.9
2020-Jul-13 14:20 233 23.9
2020-Jul-13 14:10 233 23.9
2020-Jul-13 14:00 232 23.9
2020-Jul-13 13:50 232 23.3
2020-Jul-13 13:40 239 0 gusting 2 23.3
2020-Jul-13 13:30 206 0 gusting 2 22.8
2020-Jul-13 13:20 267 22.8
2020-Jul-13 13:10 267 22.2
2020-Jul-13 13:00 267 22.2
2020-Jul-13 12:50 267 22.2
2020-Jul-13 12:40 267 22.2
2020-Jul-13 12:30 267 22.2
2020-Jul-13 12:20 267 21.7
2020-Jul-13 12:10 267 21.7
2020-Jul-13 12:00 267 21.7
2020-Jul-13 11:50 267 21.7
2020-Jul-13 11:40 267 21.7
2020-Jul-13 11:30 267 21.7
2020-Jul-13 11:20 267 21.7
2020-Jul-13 11:10 267 21.7
2020-Jul-13 11:00 267 21.7
2020-Jul-13 10:50 267 21.7
2020-Jul-13 10:40 267 21.7
2020-Jul-13 10:30 267 21.7
2020-Jul-13 10:20 267 21.7
2020-Jul-13 10:10 267 21.7
2020-Jul-13 10:00 267 21.7
2020-Jul-13 09:50 267 21.7
2020-Jul-13 09:40 267 21.7
2020-Jul-13 09:30 267 21.7
2020-Jul-13 09:20 267 21.7
2020-Jul-13 09:10 267 21.7
2020-Jul-13 09:00 263 21.7
2020-Jul-13 08:50 263 22.2
2020-Jul-13 08:40 266 1 gusting 1 21.7
2020-Jul-13 08:30 187 21.7
2020-Jul-13 08:20 098 21.7
2020-Jul-13 08:10 098 21.7
2020-Jul-13 08:00 098 21.7
2020-Jul-13 07:50 098 21.7
2020-Jul-13 07:40 098 21.7
2020-Jul-13 07:30 098 21.7
2020-Jul-13 07:20 098 21.7
2020-Jul-13 07:10 098 21.7
2020-Jul-13 07:00 098 22.2
2020-Jul-13 06:50 098 22.2
2020-Jul-13 06:40 098 22.2
2020-Jul-13 06:30 098 22.2
2020-Jul-13 06:20 098 22.2
2020-Jul-13 06:10 098 22.2
2020-Jul-13 06:00 098 22.2
2020-Jul-13 05:50 098 22.2
2020-Jul-13 05:40 098 22.2
2020-Jul-13 05:30 098 22.8
2020-Jul-13 05:20 098 22.8
2020-Jul-13 05:10 098 22.8
2020-Jul-13 05:00 098 22.8
2020-Jul-13 04:50 098 22.8
2020-Jul-13 04:40 098 22.8
2020-Jul-13 04:30 098 23.3
2020-Jul-13 04:20 098 23.3
2020-Jul-13 04:10 098 23.3
2020-Jul-13 04:00 098 23.9
2020-Jul-13 03:50 098 23.9
2020-Jul-13 03:40 098 23.9
2020-Jul-13 03:30 098 24.4
2020-Jul-13 03:20 098 24.4
2020-Jul-13 03:10 098 0 gusting 1 24.4
2020-Jul-13 03:00 098 1 gusting 2 24.4
2020-Jul-13 02:50 098 0 gusting 1 24.4
2020-Jul-13 02:40 098 0 gusting 1 23.9
2020-Jul-13 02:30 216 0 gusting 3 23.9
2020-Jul-13 02:20 132 1 gusting 1 23.3
2020-Jul-13 02:10 132 23.3
2020-Jul-13 02:00 132 23.3
2020-Jul-13 01:50 132 23.9
2020-Jul-13 01:40 132 23.9
2020-Jul-13 01:30 132 23.9
2020-Jul-13 01:20 132 23.9
2020-Jul-13 01:10 132 23.9
2020-Jul-13 01:00 132 24.4
2020-Jul-13 00:50 132 24.4
2020-Jul-13 00:40 132 25.0
2020-Jul-13 00:30 132 25.0
2020-Jul-13 00:20 132 25.6
2020-Jul-13 00:10 132 25.6
2020-Jul-13 00:00 132 26.1
2020-Jul-12 23:50 132 26.1
2020-Jul-12 23:40 132 26.7
2020-Jul-12 23:30 132 26.7
2020-Jul-12 23:20 132 27.2
2020-Jul-12 23:10 132 27.8
2020-Jul-12 23:00 132 27.8
2020-Jul-12 22:50 155 28.3
2020-Jul-12 22:40 155 28.3
2020-Jul-12 22:30 181 28.3
2020-Jul-12 22:20 207 28.9
2020-Jul-12 22:10 138 28.9
2020-Jul-12 22:00 092 1 gusting 5 29.4
2020-Jul-12 21:50 230 2 gusting 5 29.4
2020-Jul-12 21:40 153 1 gusting 4 29.4
2020-Jul-12 21:30 294 0 gusting 4 30.0
2020-Jul-12 21:20 149 0 gusting 4 30.6
2020-Jul-12 21:10 147 1 gusting 5 30.6
2020-Jul-12 21:00 173 0 gusting 6 31.1
2020-Jul-12 20:50 196 0 gusting 5 31.1
2020-Jul-12 20:40 155 0 gusting 3 31.1
2020-Jul-12 20:30 142 1 gusting 5 30.6
2020-Jul-12 20:20 144 0 gusting 5 30.6
2020-Jul-12 20:10 254 0 gusting 6 30.6
2020-Jul-12 20:00 194 0 gusting 3 30.6
2020-Jul-12 19:50 164 0 gusting 5 30.6
2020-Jul-12 19:40 189 0 gusting 3 30.0
2020-Jul-12 19:30 248 3 gusting 7 30.6
2020-Jul-12 19:20 162 1 gusting 4 30.6
2020-Jul-12 19:10 149 0 gusting 6 30.6
2020-Jul-12 19:00 087 1 gusting 5 30.6
2020-Jul-12 18:50 178 2 gusting 6 30.6
2020-Jul-12 18:40 328 0 gusting 7 30.6
2020-Jul-12 18:30 230 1 gusting 6 30.0
2020-Jul-12 18:20 151 0 gusting 6 30.0
2020-Jul-12 18:10 247 3 gusting 7 30.0
2020-Jul-12 18:00 091 2 gusting 7 30.0
2020-Jul-12 17:50 188 0 gusting 6 29.4
2020-Jul-12 17:40 175 1 gusting 9 29.4
2020-Jul-12 17:30 271 2 gusting 6 29.4
2020-Jul-12 17:20 161 1 gusting 3 28.9
2020-Jul-12 17:10 159 0 gusting 3 28.3
2020-Jul-12 17:00 210 3 gusting 4 28.3
2020-Jul-12 16:50 209 2 gusting 10 28.9
2020-Jul-12 16:40 167 2 gusting 6 28.3
2020-Jul-12 16:30 128 1 gusting 7 28.3
2020-Jul-12 16:20 130 1 gusting 6 27.8
2020-Jul-12 16:10 159 3 gusting 9 27.8
2020-Jul-12 16:00 124 27.8
2020-Jul-12 15:50 207 0 gusting 6 28.3
2020-Jul-12 15:40 130 2 gusting 6 27.8
2020-Jul-12 15:30 131 1 gusting 7 27.8
2020-Jul-12 15:20 090 27.8
2020-Jul-12 15:10 171 0 gusting 6 27.2
2020-Jul-12 15:00 183 0 gusting 7 27.2
2020-Jul-12 14:50 143 0 gusting 7 26.7
2020-Jul-12 14:40 157 0 gusting 4 26.7
2020-Jul-12 14:30 144 1 gusting 6 26.1
2020-Jul-12 14:20 254 1 gusting 6 25.6
2020-Jul-12 14:10 005 0 gusting 4 25.6
2020-Jul-12 14:00 277 1 gusting 6 25.6
2020-Jul-12 13:50 194 3 gusting 6 25.0
2020-Jul-12 13:40 088 1 gusting 6 24.4
2020-Jul-12 13:30 098 1 gusting 6 24.4
2020-Jul-12 13:20 159 0 gusting 6 23.9
2020-Jul-12 13:10 268 0 gusting 7 23.9
2020-Jul-12 13:00 166 24.4
2020-Jul-12 12:50 110 3 gusting 6 24.4
2020-Jul-12 12:40 061 24.4
2020-Jul-12 12:30 230 1 gusting 3 24.4
2020-Jul-12 12:20 277 1 gusting 3 23.9
2020-Jul-12 12:10 086 2 gusting 6 23.9
2020-Jul-12 12:00 210 23.9
2020-Jul-12 11:50 129 1 gusting 5 23.3
2020-Jul-12 11:40 116 1 gusting 6 23.3
2020-Jul-12 11:30 183 1 gusting 2 23.3
2020-Jul-12 11:20 219 1 gusting 6 22.8
2020-Jul-12 11:10 163 22.8
2020-Jul-12 11:00 106 0 gusting 3 22.2
2020-Jul-12 10:50 279 0 gusting 5 22.2
2020-Jul-12 10:40 256 22.2
2020-Jul-12 10:30 279 0 gusting 3 21.7
2020-Jul-12 10:20 163 21.7
2020-Jul-12 10:10 236 0 gusting 2 21.7
2020-Jul-12 10:00 111 0 gusting 1 21.7
2020-Jul-12 09:50 156 21.7
2020-Jul-12 09:40 155 21.7
2020-Jul-12 09:30 135 21.7
2020-Jul-12 09:20 135 22.2
2020-Jul-12 09:10 155 0 gusting 1 22.2
2020-Jul-12 09:00 143 22.2
2020-Jul-12 08:50 194 0 gusting 2 22.2
2020-Jul-12 08:40 096 22.2
2020-Jul-12 08:30 149 0 gusting 2 22.2
2020-Jul-12 08:20 122 22.2
2020-Jul-12 08:10 122 22.2
2020-Jul-12 08:00 282 22.2
2020-Jul-12 07:50 142 22.8
2020-Jul-12 07:40 121 22.8
2020-Jul-12 07:30 200 22.8
2020-Jul-12 07:20 211 22.8
2020-Jul-12 07:10 313 22.8
2020-Jul-12 07:00 075 23.3
2020-Jul-12 06:50 134 23.3
2020-Jul-12 06:40 141 0 gusting 1 23.3
2020-Jul-12 06:30 168 0 gusting 1 23.3
2020-Jul-12 06:20 194 0 gusting 0 23.3
2020-Jul-12 06:10 298 1 gusting 3 23.3
2020-Jul-12 06:00 117 23.3
2020-Jul-12 05:50 117 23.9
2020-Jul-12 05:40 117 23.9
2020-Jul-12 05:30 264 23.9
2020-Jul-12 05:20 221 0 gusting 1 23.9
2020-Jul-12 05:10 145 0 gusting 4 23.9
2020-Jul-12 05:00 276 1 gusting 2 23.9
2020-Jul-12 04:50 107 0 gusting 3 24.4
2020-Jul-12 04:40 290 0 gusting 3 24.4
2020-Jul-12 04:30 235 0 gusting 1 24.4
2020-Jul-12 04:20 301 24.4
2020-Jul-12 04:10 282 24.4
2020-Jul-12 04:00 289 0 gusting 3 24.4
2020-Jul-12 03:50 194 0 gusting 2 24.4
2020-Jul-12 03:40 294 24.4
2020-Jul-12 03:30 157 0 gusting 1 24.4
2020-Jul-12 03:20 107 24.4
2020-Jul-12 03:10 321 0 gusting 3 24.4
2020-Jul-12 03:00 273 25.0
2020-Jul-12 02:50 093 1 gusting 3 25.0
2020-Jul-12 02:40 279 1 gusting 3 25.0
2020-Jul-12 02:30 165 25.6
2020-Jul-12 02:20 198 0 gusting 5 25.6
2020-Jul-12 02:10 292 1 gusting 6 25.6
2020-Jul-12 02:00 243 25.6
2020-Jul-12 01:50 118 1 gusting 3 25.6
2020-Jul-12 01:40 198 1 gusting 4 25.6
2020-Jul-12 01:30 298 0 gusting 4 25.6
2020-Jul-12 01:20 261 0 gusting 3 25.6
2020-Jul-12 01:10 183 0 gusting 5 25.6
2020-Jul-12 01:00 051 0 gusting 7 26.1
2020-Jul-12 00:50 009 0 gusting 3 26.1
2020-Jul-12 00:40 290 2 gusting 5 26.1
2020-Jul-12 00:30 227 26.1
2020-Jul-12 00:20 101 1 gusting 3 26.1
2020-Jul-12 00:10 115 0 gusting 6 26.7
2020-Jul-12 00:00 189 5 gusting 5 26.7
2020-Jul-11 23:50 322 0 gusting 4 26.7
2020-Jul-11 23:40 106 1 gusting 5 26.7
2020-Jul-11 23:30 134 0 gusting 4 27.2
2020-Jul-11 23:20 360 0 gusting 4 27.8
2020-Jul-11 23:10 119 27.8
2020-Jul-11 23:00 295 27.8
2020-Jul-11 22:50 297 0 gusting 4 27.8
2020-Jul-11 22:40 182 28.3
2020-Jul-11 22:30 173 28.3
2020-Jul-11 22:20 207 28.9
2020-Jul-11 22:10 191 0 gusting 4 28.9
2020-Jul-11 22:00 165 0 gusting 6 28.9
2020-Jul-11 21:50 046 0 gusting 6 29.4
2020-Jul-11 21:40 261 1 gusting 6 29.4
2020-Jul-11 21:30 013 30.0
2020-Jul-11 21:20 267 30.6
2020-Jul-11 21:10 078 30.6
2020-Jul-11 21:00 126 0 gusting 7 30.6
2020-Jul-11 20:50 360 0 gusting 4 30.6
2020-Jul-11 20:40 321 0 gusting 6 30.0
2020-Jul-11 20:30 284 6 gusting 6 30.0
2020-Jul-11 20:20 227 30.6
2020-Jul-11 20:10 115 0 gusting 6 31.1
2020-Jul-11 20:00 279 2 gusting 9 30.6
2020-Jul-11 19:50 193 0 gusting 8 30.0
2020-Jul-11 19:40 229 3 gusting 9 30.0
2020-Jul-11 19:30 144 1 gusting 7 30.0
2020-Jul-11 19:20 327 0 gusting 6 30.0
2020-Jul-11 19:10 296 3 gusting 7 30.6
2020-Jul-11 19:00 053 1 gusting 10 31.1
2020-Jul-11 18:50 120 1 gusting 7 31.1
2020-Jul-11 18:40 194 0 gusting 6 31.7
2020-Jul-11 18:30 242 2 gusting 7 31.7
2020-Jul-11 18:20 153 4 gusting 6 31.7
2020-Jul-11 18:10 063 0 gusting 10 31.1
2020-Jul-11 18:00 284 1 gusting 5 31.1
2020-Jul-11 17:50 182 30.6
2020-Jul-11 17:40 113 5 gusting 6 31.1
2020-Jul-11 17:30 038 1 gusting 8 30.6
2020-Jul-11 17:20 265 0 gusting 8 30.6
2020-Jul-11 17:10 339 2 gusting 8 30.0
2020-Jul-11 17:00 234 3 gusting 6 30.0
2020-Jul-11 16:50 193 1 gusting 5 29.4
2020-Jul-11 16:40 203 1 gusting 4 28.9
2020-Jul-11 16:30 209 28.9
2020-Jul-11 16:20 181 3 gusting 6 29.4
2020-Jul-11 16:10 232 0 gusting 4 29.4
2020-Jul-11 16:00 010 0 gusting 3 28.9
2020-Jul-11 15:50 223 0 gusting 5 28.9
2020-Jul-11 15:40 272 0 gusting 5 28.9
2020-Jul-11 15:30 233 1 gusting 4 28.9
2020-Jul-11 15:20 188 2 gusting 3 28.9
2020-Jul-11 15:10 270 2 gusting 7 28.3
2020-Jul-11 15:00 049 3 gusting 6 27.8